EW5773 Weather Reports


Display with metric or nautical units.
time (UTC)temp
F
wind
direction
speed
MPH
gust
MPH
rain 1hr
in
rain 24hr
in
rain mn
in
humidity
%
barometer
mb
20260901094506 69 298 4.0 10.0 0.00 0.00 0.00 60 1022.2
20260901093005 67 292 3.0 9.0 0.00 0.00 0.00 62 1022.2
20260901091505 67 297 3.0 8.0 0.00 0.00 0.00 62 1022.0
20260901090006 66 240 1.0 7.0 0.00 0.00 0.00 66 1022.2
20260901083105 65 307 2.0 6.0 0.00 0.00 0.00 71 1022.1
20260901081519 62 306 1.0 5.0 0.00 0.00 0.00 74 1022.0
20260901080017 61 298 1.0 3.0 0.00 0.00 0.00 80 1021.9
20260901074516 60 289 1.0 4.0 0.00 0.00 0.00 84 1021.9
20260901073017 59 290 0.0 0.0 0.00 0.00 0.00 86 1021.8
20260901071515 58 290 0.0 3.0 0.00 0.00 0.00 86 1021.7
20260901070015 58 290 1.0 5.0 0.00 0.00 0.00 87 1021.7
20260901064514 57 291 1.0 3.0 0.00 0.00 0.00 89 1021.6
20260901063018 56 291 1.0 4.0 0.00 0.00 0.00 89 1021.7
20260901061507 56 289 1.0 4.0 0.00 0.00 0.00 89 1021.6
20260901060019 56 290 2.0 4.0 0.00 0.00 0.00 89 1021.5
20260901054506 55 289 1.0 4.0 0.00 0.00 0.00 89 1021.3
20260901053006 55 288 1.0 4.0 0.00 0.00 0.00 89 1021.2
20260901051503 55 290 0.0 3.0 0.00 0.00 0.00 88 1021.0
20260901050003 55 290 0.0 2.0 0.00 0.00 0.00 88 1020.8
20260901043055 56 290 0.0 3.0 0.00 0.00 0.00 88 1020.6
20260901041614 56 289 1.0 5.0 0.00 0.00 0.00 88 1020.8
20260901040118 56 290 0.0 1.0 0.00 0.00 0.00 87 1020.6
20260901034521 56 290 0.0 2.0 0.00 0.00 0.00 87 1020.9
20260901033019 57 290 1.0 3.0 0.00 0.00 0.00 87 1020.8
20260901031538 57 290 0.0 3.0 0.00 0.00 0.00 86 1020.7
20260901030110 57 291 0.0 4.0 0.00 0.00 0.00 86 1020.8
20260901024608 58 289 1.0 3.0 0.00 0.00 0.00 86 1020.8
20260901021603 58 288 1.0 4.0 0.00 0.00 0.00 85 1020.8
20260901020025 58 285 0.0 5.0 0.00 0.00 0.00 84 1020.9
20260901014520 59 289 2.0 7.0 0.00 0.00 0.00 84 1020.7
20260901013059 59 287 2.0 7.0 0.00 0.00 0.00 83 1020.8
20260901011520 60 295 2.0 8.0 0.00 0.00 0.00 82 1020.6
20260901010106 60 290 2.0 7.0 0.00 0.00 0.00 82 1020.6
20260901004547 60 284 1.0 4.0 0.00 0.00 0.00 81 1020.5
20260901003018 60 280 2.0 7.0 0.00 0.00 0.00 80 1020.6
20260901001517 60 284 1.0 4.0 0.00 0.00 0.00 80 1020.7
20260901000116 61 283 1.0 7.0 0.00 0.00 0.00 79 1020.5
20260831234513 61 289 1.0 4.0 0.00 0.00 0.00 78 1020.4
20260831233012 61 297 2.0 4.0 0.00 0.00 0.00 77 1020.5
20260831231516 62 299 2.0 4.0 0.00 0.00 0.00 76 1020.6
20260831230008 62 300 0.0 5.0 0.00 0.00 0.00 75 1020.5
20260831224503 62 303 0.0 3.0 0.00 0.00 0.00 75 1020.5
20260831223005 62 304 0.0 3.0 0.00 0.00 0.00 75 1020.4
20260831221554 62 304 0.0 3.0 0.00 0.00 0.00 74 1020.4
20260831220005 63 304 0.0 0.0 0.00 0.00 0.00 73 1020.3
20260831214610 63 303 0.0 0.0 0.00 0.00 0.00 72 1020.3
20260831213109 64 303 0.0 1.0 0.00 0.00 0.00 71 1020.2
20260831211517 64 303 0.0 4.0 0.00 0.00 0.00 70 1020.1
20260831210019 65 303 2.0 5.0 0.00 0.00 0.00 69 1020.0
20260831204515 65 294 2.0 5.0 0.00 0.00 0.00 68 1019.9
20260831203014 65 291 0.0 3.0 0.00 0.00 0.00 68 1019.7
20260831201522 65 288 0.0 4.0 0.00 0.00 0.00 67 1019.7
20260831200011 65 287 0.0 3.0 0.00 0.00 0.00 67 1019.4
20260831194509 65 286 0.0 3.0 0.00 0.00 0.00 66 1019.5
20260831193007 66 285 0.0 3.0 0.00 0.00 0.00 65 1019.2
20260831191503 66 285 1.0 5.0 0.00 0.00 0.00 64 1018.9
20260831190006 67 286 1.0 5.0 0.00 0.00 0.00 63 1018.8
20260831184502 68 286 1.0 5.0 0.00 0.00 0.00 62 1018.6
20260831183015 68 274 2.0 7.0 0.00 0.00 0.00 60 1018.7
20260831181514 69 277 2.0 7.0 0.00 0.00 0.00 58 1018.6
20260831180126 70 283 2.0 9.0 0.00 0.00 0.00 57 1018.3
20260831174516 71 273 2.0 9.0 0.00 0.00 0.00 56 1018.2
20260831173018 71 238 7.0 16.0 0.00 0.00 0.00 56 1018.1
20260831171511 72 223 5.0 12.0 0.00 0.00 0.00 57 1018.1
20260831170010 72 287 6.0 12.0 0.00 0.00 0.00 58 1018.1
20260831164532 72 298 5.0 12.0 0.00 0.00 0.00 59 1017.8
20260831163102 72 279 4.0 14.0 0.00 0.00 0.00 60 1017.9
20260831161603 73 261 7.0 18.0 0.00 0.00 0.00 58 1017.7
20260831160056 73 241 10.0 19.0 0.00 0.00 0.00 58 1017.8
20260831154526 73 223 9.0 20.0 0.00 0.00 0.00 59 1017.8
20260831153007 73 218 10.0 22.0 0.00 0.00 0.00 57 1017.7
20260831151506 73 304 8.0 20.0 0.00 0.00 0.00 56 1017.6
20260831150005 72 280 11.0 21.0 0.00 0.00 0.00 58 1017.5
20260831144510 73 234 14.0 23.0 0.00 0.00 0.00 58 1017.4
20260831143011 73 206 8.0 20.0 0.00 0.00 0.00 57 1017.2
20260831141508 73 253 14.0 23.0 0.00 0.00 0.00 56 1017.2
20260831140008 74 227 13.0 19.0 0.00 0.00 0.00 54 1017.2
20260831134514 73 270 13.0 25.0 0.00 0.00 0.00 56 1017.0
20260831133015 73 232 7.0 23.0 0.00 0.00 0.00 57 1016.9
20260831131614 73 240 13.0 23.0 0.00 0.00 0.00 56 1016.8
20260831130016 73 168 12.0 25.0 0.00 0.00 0.00 55 1016.8
20260831124516 73 262 11.0 24.0 0.00 0.00 0.00 56 1016.7
20260831123018 72 250 11.0 20.0 0.00 0.00 0.00 59 1016.6
20260831121508 72 224 13.0 21.0 0.00 0.00 0.00 58 1016.6
20260831120007 72 223 14.0 25.0 0.00 0.00 0.00 58 1016.3
20260831114602 71 219 12.0 22.0 0.00 0.00 0.00 61 1016.4
20260831113104 71 205 12.0 25.0 0.00 0.00 0.00 61 1016.2
20260831111558 70 137 9.0 25.0 0.00 0.00 0.00 63 1016.3
20260831110055 69 205 10.0 20.0 0.00 0.00 0.00 66 1016.0
20260831104602 69 282 9.0 17.0 0.00 0.00 0.00 67 1016.1
20260831103020 68 238 10.0 18.0 0.00 0.00 0.00 67 1016.0
20260831101517 67 217 10.0 24.0 0.00 0.00 0.00 67 1015.8
20260831100022 68 236 13.0 26.0 0.00 0.00 0.00 66 1015.8